{"data":{"norad_id":65981,"intl_designator":"2025-230H","name":"SDA_1671","alt_names":[],"object_type":"PAYLOAD","status":"ACTIVE","operator":null,"country":"US","launch_date":"2025-10-15","launch_site_code":"AFWTR","launch_vehicle":null,"mission":null,"orbit_class":"UNKNOWN","rcs_meters":null,"size_class":null,"mass_kg":null,"dimensions":null,"purposes":[],"wikipedia_slug":null,"has_3d_model":false,"image_url":null,"decayed_at":null,"tle_current":{"epoch":"2026-05-25T05:23:28.603968Z","epoch_age_seconds":52331,"freshness":"FRESH","line1":"1 65981U 25230H   26145.22463662 -.00004317  00000+0 -39542-2 0  9991","line2":"2 65981  81.3009 232.9836 0001016 234.9410 125.1650 13.83201611 30634","mean_motion":13.83201611,"eccentricity":0.0001016,"inclination_deg":81.3009,"raan_deg":232.9836,"arg_perigee_deg":234.941,"mean_anomaly_deg":125.165,"bstar":-0.0039542,"rev_number":3063,"period_min":104.10629864427,"perigee_km":951.80813671025,"apogee_km":953.29773290501,"semimajor_km":7330.6899348076,"source":"CELESTRAK","updated_at":"2026-05-25T13:38:05.878173Z"}}}